RH
10 11 11 10 11 13 19 20 20 22 24 26 30 34 31 31 28 32 35 41 32 28 27 25 27 28 29 30 31 33 34 33 38 35 29 24 20 17 16 15 16 16 16 17 17 18 18 21 22
12 12 12 11 18 23 23 22 24 23 29 29 30 29 28 28 26 28 30 28 29 27 27 24 26 25 26 28 30 33 34 35 34 38 37 33 26 21 17 15 16 16 16 17 18 19 20 21 23
14 14 13 15 26 24 22 21 24 27 30 28 29 31 31 30 28 30 31 27 25 26 27 26 24 24 26 27 30 32 34 35 37 38 37 35 32 26 22 18 17 16 17 18 20 21 21 22 23
18 18 16 21 23 24 21 21 25 30 32 32 31 34 36 35 30 26 32 28 26 26 27 28 25 26 27 28 30 30 32 35 36 37 36 36 34 28 26 25 22 19 18 19 20 22 23 22 23
21 20 21 25 25 25 23 24 26 27 31 32 33 39 38 36 33 31 31 26 26 27 29 29 27 27 26 26 28 30 32 34 33 33 32 32 29 30 28 26 27 25 23 21 22 24 24 24 24
22 22 24 28 26 26 24 22 25 27 29 30 32 36 36 35 32 33 31 29 27 29 29 30 28 26 25 24 26 29 31 31 30 32 31 31 31 29 28 27 27 29 28 27 27 26 25 25 25
27 25 23 28 28 24 24 23 24 28 30 30 29 28 30 34 33 30 30 32 31 31 31 31 27 26 24 25 26 26 28 28 30 32 31 31 33 33 30 29 28 28 30 30 31 32 30 30 29
27 27 23 33 29 28 24 25 26 27 28 31 32 32 31 29 30 32 31 32 35 35 34 32 30 27 27 27 27 27 28 30 30 31 33 34 33 32 30 28 28 29 29 31 33 36 37 34 33
30 30 27 31 30 28 27 27 26 26 29 32 31 32 30 27 28 31 33 32 30 30 30 31 30 29 29 29 29 29 29 30 31 32 34 35 35 35 33 31 29 29 30 31 33 35 38 39 38
31 34 26 31 31 31 29 28 28 27 28 31 32 31 30 29 29 29 28 28 30 31 31 33 34 32 30 29 29 29 31 31 32 33 34 36 37 38 39 37 34 31 31 33 34 35 38 39 40
30 32 28 32 33 34 32 29 29 29 29 31 33 32 33 31 32 32 31 30 28 30 33 34 36 37 36 36 35 32 31 33 34 35 36 37 38 39 40 40 40 38 34 32 36 39 39 42 43
29 31 30 25 34 34 32 31 29 30 29 29 31 32 33 33 34 35 32 30 31 32 35 37 40 43 46 40 37 36 36 35 35 37 40 42 42 41 41 41 42 41 41 42 40 42 45 44 46
31 31 31 27 31 34 34 33 31 31 30 29 32 34 33 35 35 31 29 29 31 34 37 40 43 46 47 43 40 38 37 40 43 46 47 47 48 49 50 51 50 48 48 48 50 46 45 46 49
30 31 34 32 29 34 34 35 33 33 33 34 36 35 33 34 31 29 28 29 32 35 39 42 43 45 46 45 44 44 46 50 50 50 52 52 52 53 54 54 54 54 55 56 57 60 57 51 48
31 31 33 34 34 30 34 34 33 33 34 34 35 33 33 34 33 30 28 29 31 34 36 37 42 46 49 51 49 51 53 52 52 54 54 53 53 53 52 50 52 54 57 59 61 60 63 64 63
32 33 35 35 37 36 33 33 33 34 36 36 36 35 35 35 33 34 34 34 35 33 32 37 41 47 55 57 56 57 51 52 55 56 56 55 56 56 54 55 55 59 63 66 69 71 74 73 69
35 39 37 37 39 41 39 36 32 34 37 38 39 37 34 34 36 37 37 37 38 34 33 33 39 47 50 54 54 54 53 51 57 58 57 57 57 59 59 60 65 68 70 73 77 75 79 80 79
41 42 38 39 41 40 40 41 36 39 37 37 38 37 37 37 38 40 39 39 41 41 39 39 43 46 51 51 55 54 52 54 55 53 51 49 47 44 43 48 51 54 54 58 60 65 67 71 68
41 42 40 37 42 43 40 42 38 38 38 39 41 41 42 42 42 42 44 44 45 46 46 46 47 48 48 50 50 47 44 37 32 28 27 26 25 23 21 20 21 23 24 25 27 34 47 57 60
45 46 42 40 43 49 47 46 41 44 42 44 46 48 44 44 43 43 47 48 49 49 51 51 52 51 51 47 40 32 31 29 26 23 21 19 19 20 22 23 24 25 26 24 23 25 25 27 36
43 46 43 49 47 54 53 50 44 41 44 47 47 46 45 44 44 46 49 50 49 48 51 53 53 51 44 36 31 28 26 24 23 22 22 22 22 23 23 25 25 26 26 29 30 30 32 33 33
46 38 47 51 56 61 55 60 50 45 48 50 51 49 47 46 48 49 51 51 48 48 48 48 46 42 38 31 28 26 25 23 23 23 24 25 24 26 28 29 30 31 32 32 34 36 35 34 33
44 43 52 55 59 60 58 62 45 46 47 50 50 52 53 52 50 51 52 50 49 48 46 46 43 41 37 32 30 30 29 28 27 26 26 27 28 27 28 30 31 32 35 39 41 42 43 42 42
40 50 58 62 66 71 57 61 52 46 43 47 51 52 53 54 55 54 54 52 49 49 48 46 44 43 42 40 38 35 31 30 32 30 28 30 34 36 37 34 30 28 30 33 35 38 40 44 48
49 56 73 78 75 68 54 63 51 44 43 43 46 49 50 53 54 53 51 50 50 49 48 49 48 48 47 45 41 37 33 32 32 32 36 39 38 36 32 30 28 28 29 30 30 30 33 36 37
48 53 73 80 78 66 60 63 52 44 44 45 46 47 49 50 51 51 50 50 49 50 52 52 52 52 48 45 43 39 36 35 37 37 37 36 34 31 28 26 24 21 21 21 21 20 21 21 27
51 64 60 72 74 81 66 54 49 46 45 45 45 47 48 48 48 49 50 49 50 52 54 54 54 52 51 50 48 45 44 39 38 38 36 32 29 27 24 21 19 20 21 20 20 18 19 20 18
54 54 76 84 93 90 72 62 53 49 49 47 46 46 47 48 50 51 51 51 53 55 57 58 57 56 54 52 51 48 41 38 38 38 34 29 26 24 23 22 22 21 21 23 24 23 22 21 22
62 67 70 77 90 84 76 64 49 49 47 47 47 48 50 51 53 53 53 54 56 58 58 58 57 59 58 56 52 46 42 40 38 33 29 26 24 23 22 22 22 22 24 25 27 26 28 30 28
60 66 69 81 83 80 77 56 54 50 49 49 50 51 53 54 54 54 55 56 58 59 58 58 61 61 59 54 48 44 41 40 36 32 29 27 24 23 23 25 27 28 29 30 31 32 33 38 39